Weather History for Punta Gorda, FL

Change the Weather History Date:

Monday, November 12, 2012

  Actual Average Record
Temperature  
Mean Temperature 72 °F -  
Max Temperature 82 °F 78 °F 88 °F (2008)
Min Temperature 61 °F 58 °F 48 °F (2011)
Cooling Degree Days 6    
Growing Degree Days 22 (Base 50)    
Moisture  
Dew Point 63 °F    
Average Humidity 75    
Maximum Humidity 93    
Minimum Humidity 51    
Precipitation  
Precipitation 0.01 in - - ()
Sea Level Pressure  
Sea Level Pressure 30.20 in    
Wind  
Wind Speed 6 mph (East)    
Max Wind Speed 15 mph    
Max Gust Speed 22 mph    
Visibility 10 miles    
Events      
Averages and records for this station are not official NWS values.
T = Trace of Precipitation, MM = Missing Value Source: NWS Daily Summary

Daily Weather History Graph

Daily Weather History Graph

Search for Another Location

Airport:

Trip Planner

Search our weather history database for the weather conditions in past years. The results will help you decide how hot, cold, wet, or windy it might be!

Date:

Astronomy

Nov. 12, 2012 Rise Set
Actual Time 6:45 AM EST 5:38 PM EST
Civil Twilight 6:21 AM EST 6:02 PM EST
Nautical Twilight 5:53 AM EST 6:30 PM EST
Astronomical Twilight 5:25 AM EST 6:58 PM EST
Moon 5:14 AM EST (11/12) 4:39 PM EST (11/12)
Length of Visible Light 11h 41m
Length of Day
10h 52m
Waning Crescent, 2% of the Moon is Illuminated
Nov 12
Waning Crescent
Nov 13
New
Nov 20
First Quarter
Nov 28
Full
Dec 6
Last Quarter

Hourly Weather History & Observations

Time (EST) Temp. Heat Index Dew Point Humidity Pressure Visibility Wind Dir Wind Speed Gust Speed Precip Events Conditions
12:53 AM 61.0 °F - 57.9 °F 90% 30.23 in 10.0 mi East 5.8 mph - N/A   Clear
1:53 AM 63.0 °F - 60.1 °F 90% 30.21 in 10.0 mi ENE 5.8 mph - N/A   Overcast
2:53 AM 64.9 °F - 61.0 °F 87% 30.20 in 10.0 mi NE 4.6 mph - N/A   Overcast
3:53 AM 64.9 °F - 62.1 °F 90% 30.21 in 10.0 mi Calm Calm - 0.00 in   Overcast
4:53 AM 64.9 °F - 62.1 °F 90% 30.21 in 10.0 mi NNE 3.5 mph - 0.00 in   Overcast
5:53 AM 63.0 °F - 60.1 °F 90% 30.21 in 8.0 mi NE 3.5 mph - N/A   Partly Cloudy
7:53 AM 66.0 °F - 63.0 °F 90% 30.23 in 10.0 mi ENE 5.8 mph - N/A   Clear
8:53 AM 73.9 °F - 64.9 °F 73% 30.24 in 10.0 mi East 8.1 mph - 0.01 in   Clear
9:53 AM 79.0 °F - 64.9 °F 62% 30.25 in 10.0 mi East 13.8 mph - N/A   Clear
10:53 AM 82.0 °F 83.1 °F 63.0 °F 52% 30.24 in 10.0 mi SE 12.7 mph - N/A   Mostly Cloudy
11:53 AM 82.9 °F 84.0 °F 63.0 °F 51% 30.22 in 10.0 mi SE 15.0 mph - N/A   Partly Cloudy
12:53 PM 82.9 °F 85.0 °F 66.0 °F 56% 30.20 in 10.0 mi SE 12.7 mph 21.9 mph N/A   Overcast
1:53 PM 80.1 °F 81.7 °F 64.0 °F 58% 30.18 in 9.0 mi ESE 12.7 mph - N/A   Mostly Cloudy
2:53 PM 79.0 °F - 63.0 °F 58% 30.18 in 10.0 mi ESE 8.1 mph - N/A   Overcast
3:53 PM 77.0 °F - 64.9 °F 66% 30.17 in 10.0 mi SE 3.5 mph - N/A   Overcast
4:53 PM 75.9 °F - 64.0 °F 67% 30.17 in 10.0 mi ESE 5.8 mph - N/A   Overcast
5:53 PM 73.0 °F - 63.0 °F 71% 30.17 in 10.0 mi ENE 4.6 mph - N/A   Overcast
6:53 PM 73.0 °F - 63.0 °F 71% 30.18 in 10.0 mi East 3.5 mph - N/A   Overcast
7:53 PM 72.0 °F - 64.0 °F 76% 30.19 in 10.0 mi ENE 4.6 mph - N/A   Overcast
8:53 PM 72.0 °F - 64.9 °F 78% 30.19 in 10.0 mi ENE 5.8 mph - N/A   Overcast
9:53 PM 70.0 °F - 64.9 °F 84% 30.19 in 10.0 mi ENE 5.8 mph - N/A   Mostly Cloudy
10:53 PM 68.0 °F - 64.0 °F 87% 30.20 in 10.0 mi NE 5.8 mph - N/A   Clear
11:53 PM 64.9 °F - 63.0 °F 93% 30.19 in 10.0 mi NNE 4.6 mph - N/A   Clear